BAW22 EGKK-KJFK

Flight info

Callsign BAW22
Flight time N/A
Altitude 34000
Route NOVMA L620 SAM N19 ADKIK DCT MOPAT DCT ERTER DCT LILNO DCT LIMRI/M082F360 NATF TUDEP/N0467F360 N520C TUSKY DCT PLYMM PARCH4
Aircraft B772/H-SDE2E3FGHIJ5LORVWXY/LB1D1

Departure

Time N/A
Airport London Gatwick Airport (EGKK)

Arrival

Time 2026-05-05 19:17
Airport John F. Kennedy International Airport (KJFK)
Time Latitude Longitude Altitude Speed Heading
2026-05-05 15:26 53.00548 -39.86754 36111 ft 469 kts 262°
2026-05-05 15:26 53.00324 -39.92230 36112 ft 469 kts 262°
2026-05-05 15:27 52.99865 -40.02959 36113 ft 469 kts 261°
2026-05-05 15:27 52.99265 -40.13727 36109 ft 469 kts 260°
2026-05-05 15:28 52.98613 -40.24490 36120 ft 468 kts 260°
2026-05-05 15:28 52.97965 -40.35242 36105 ft 468 kts 260°
2026-05-05 15:29 52.97321 -40.45978 36103 ft 467 kts 260°
2026-05-05 15:29 52.96672 -40.56704 36118 ft 468 kts 260°
2026-05-05 15:30 52.96011 -40.67453 36104 ft 469 kts 260°
2026-05-05 15:30 52.95339 -40.78217 36101 ft 470 kts 260°
2026-05-05 15:31 52.94650 -40.89063 36106 ft 476 kts 260°
2026-05-05 15:31 52.93943 -41.00046 36100 ft 482 kts 260°
2026-05-05 15:32 52.93220 -41.11137 36098 ft 486 kts 260°
2026-05-05 15:32 52.92482 -41.22301 36094 ft 488 kts 260°
2026-05-05 15:33 52.91736 -41.33426 36083 ft 490 kts 260°
2026-05-05 15:33 52.90974 -41.44625 36095 ft 487 kts 260°
2026-05-05 15:34 52.90209 -41.55730 36092 ft 483 kts 259°
2026-05-05 15:34 52.89440 -41.66699 36074 ft 483 kts 259°
2026-05-05 15:35 52.88655 -41.77743 36067 ft 483 kts 259°
2026-05-05 15:35 52.87861 -41.88774 36071 ft 483 kts 259°
2026-05-05 15:36 52.87057 -41.99809 36066 ft 483 kts 259°
2026-05-05 15:36 52.86242 -42.10848 36058 ft 483 kts 259°
2026-05-05 15:37 52.85417 -42.21879 36061 ft 483 kts 259°
2026-05-05 15:37 52.84583 -42.32901 36057 ft 483 kts 259°
2026-05-05 15:38 52.83737 -42.43924 36060 ft 484 kts 259°
2026-05-05 15:38 52.82879 -42.54967 36054 ft 484 kts 259°
2026-05-05 15:39 52.82010 -42.66018 36061 ft 485 kts 259°
2026-05-05 15:39 52.81132 -42.77058 36040 ft 485 kts 258°
2026-05-05 15:40 52.80243 -42.88096 36035 ft 484 kts 258°
2026-05-05 15:40 52.79346 -42.99115 36035 ft 483 kts 258°
2026-05-05 15:41 52.78439 -43.10108 36029 ft 483 kts 258°
2026-05-05 15:41 52.77522 -43.21101 36041 ft 483 kts 258°
2026-05-05 15:42 52.76595 -43.32082 36022 ft 484 kts 258°
2026-05-05 15:42 52.75657 -43.43078 36022 ft 484 kts 258°
2026-05-05 15:43 52.74709 -43.54064 36005 ft 484 kts 258°
2026-05-05 15:43 52.73751 -43.65048 36009 ft 484 kts 258°
2026-05-05 15:44 52.72782 -43.76027 36006 ft 484 kts 258°
2026-05-05 15:44 52.71803 -43.87001 36009 ft 484 kts 258°
2026-05-05 15:45 52.70821 -43.97896 35992 ft 483 kts 258°
2026-05-05 15:45 52.69823 -44.08850 35984 ft 483 kts 258°
2026-05-05 15:46 52.68816 -44.19798 35985 ft 483 kts 257°
2026-05-05 15:46 52.67797 -44.30747 35976 ft 484 kts 257°
2026-05-05 15:47 52.66767 -44.41692 36015 ft 484 kts 257°
2026-05-05 15:47 52.66417 -44.45386 36169 ft 482 kts 257°
2026-05-05 15:47 52.65734 -44.52580 36502 ft 478 kts 258°
2026-05-05 15:47 52.65218 -44.57983 36628 ft 479 kts 257°
2026-05-05 15:48 52.64695 -44.63418 36674 ft 481 kts 257°
2026-05-05 15:48 52.63637 -44.74323 36777 ft 483 kts 257°
2026-05-05 15:49 52.62568 -44.85247 36905 ft 483 kts 257°
2026-05-05 15:49 52.61488 -44.96176 36937 ft 485 kts 257°
2026-05-05 15:50 52.60394 -45.07145 36948 ft 487 kts 257°
2026-05-05 15:50 52.59285 -45.18150 36939 ft 488 kts 257°
2026-05-05 15:51 52.58163 -45.29175 36925 ft 489 kts 257°
2026-05-05 15:51 52.57034 -45.40178 36920 ft 489 kts 257°
2026-05-05 15:52 52.55892 -45.51194 36925 ft 488 kts 257°
2026-05-05 15:52 52.54743 -45.62171 36922 ft 487 kts 257°
2026-05-05 15:53 52.53588 -45.73100 36911 ft 485 kts 257°
2026-05-05 15:53 52.52425 -45.84003 36912 ft 483 kts 257°
2026-05-05 15:54 52.51257 -45.94856 36925 ft 482 kts 257°
2026-05-05 15:54 52.50080 -46.05695 36907 ft 482 kts 257°
2026-05-05 15:55 52.48894 -46.16522 36920 ft 482 kts 257°
2026-05-05 15:55 52.47697 -46.27347 36893 ft 482 kts 257°
2026-05-05 15:56 52.46491 -46.38169 36880 ft 482 kts 257°
2026-05-05 15:56 52.45274 -46.48984 36884 ft 482 kts 257°
2026-05-05 15:57 52.44047 -46.59800 36894 ft 483 kts 257°
2026-05-05 15:57 52.42818 -46.70540 36882 ft 483 kts 256°
2026-05-05 15:58 52.41572 -46.81337 36867 ft 483 kts 257°
2026-05-05 15:58 52.40314 -46.92153 36874 ft 483 kts 256°
2026-05-05 15:59 52.39045 -47.02962 36854 ft 483 kts 256°
2026-05-05 15:59 52.37769 -47.13754 36856 ft 483 kts 256°
2026-05-05 16:00 52.36480 -47.24554 36854 ft 483 kts 256°
2026-05-05 16:00 52.35184 -47.35330 36849 ft 483 kts 256°
2026-05-05 16:01 52.33879 -47.46087 36840 ft 482 kts 256°
2026-05-05 16:01 52.32779 -47.55096 36843 ft 482 kts 256°
2026-05-05 16:02 52.31458 -47.65826 36834 ft 481 kts 256°
2026-05-05 16:02 52.30127 -47.76552 36833 ft 482 kts 256°
2026-05-05 16:03 52.28786 -47.87279 36832 ft 482 kts 256°
2026-05-05 16:03 52.27435 -47.98001 36825 ft 482 kts 256°
2026-05-05 16:04 52.26084 -48.08638 36812 ft 482 kts 256°
2026-05-05 16:04 52.24716 -48.19330 36811 ft 481 kts 256°
2026-05-05 16:05 52.23339 -48.30012 36815 ft 481 kts 256°
2026-05-05 16:05 52.21952 -48.40683 36799 ft 481 kts 256°
2026-05-05 16:06 52.20558 -48.51333 36799 ft 480 kts 255°
2026-05-05 16:06 52.19155 -48.61972 36802 ft 480 kts 256°
2026-05-05 16:07 52.17742 -48.72608 36805 ft 480 kts 255°
2026-05-05 16:07 52.16320 -48.83229 36791 ft 480 kts 256°
2026-05-05 16:08 52.14886 -48.93856 36791 ft 480 kts 255°
2026-05-05 16:08 52.13445 -49.04465 36791 ft 480 kts 256°
2026-05-05 16:09 52.11997 -49.15059 36782 ft 479 kts 256°
2026-05-05 16:09 52.10538 -49.25639 36779 ft 479 kts 255°
2026-05-05 16:10 52.09072 -49.36201 36757 ft 479 kts 255°
2026-05-05 16:10 52.07607 -49.46686 36760 ft 479 kts 255°
2026-05-05 16:11 52.06121 -49.57244 36767 ft 479 kts 255°
2026-05-05 16:12 52.03124 -49.78325 36739 ft 479 kts 255°
2026-05-05 16:13 51.99020 -50.04451 36742 ft 476 kts 248°
2026-05-05 16:13 51.96575 -50.14438 36733 ft 476 kts 247°
2026-05-05 16:14 51.91691 -50.34384 36730 ft 476 kts 248°
2026-05-05 16:15 51.86820 -50.54325 36733 ft 476 kts 248°
2026-05-05 16:16 51.81931 -50.74162 36716 ft 476 kts 247°
2026-05-05 16:17 51.78228 -50.89066 36718 ft 477 kts 247°
2026-05-05 16:18 51.74506 -51.03944 36709 ft 477 kts 247°
2026-05-05 16:19 51.70766 -51.18796 36707 ft 476 kts 247°
2026-05-05 16:19 51.67009 -51.33615 36708 ft 476 kts 247°
2026-05-05 16:20 51.61975 -51.53321 36701 ft 476 kts 247°
2026-05-05 16:22 51.55645 -51.77856 36699 ft 474 kts 247°
2026-05-05 16:23 51.50557 -51.97388 36690 ft 474 kts 247°
2026-05-05 16:23 51.46724 -52.11993 36697 ft 473 kts 247°
2026-05-05 16:24 51.44160 -52.21710 36695 ft 473 kts 247°
2026-05-05 16:25 51.40299 -52.36263 36690 ft 473 kts 246°
2026-05-05 16:25 51.36417 -52.50804 36696 ft 474 kts 247°
2026-05-05 16:26 51.31203 -52.70193 36680 ft 475 kts 247°
2026-05-05 16:27 51.28578 -52.79895 36693 ft 476 kts 246°
2026-05-05 16:27 51.25945 -52.89584 36691 ft 476 kts 246°
2026-05-05 16:28 51.23303 -52.99266 36685 ft 476 kts 247°
2026-05-05 16:28 51.20655 -53.08933 36693 ft 476 kts 247°
2026-05-05 16:29 51.18000 -53.18588 36682 ft 475 kts 246°
2026-05-05 16:29 51.14874 -53.27855 36689 ft 476 kts 237°
2026-05-05 16:30 51.11131 -53.36549 36676 ft 475 kts 237°
2026-05-05 16:30 51.07401 -53.45224 36688 ft 474 kts 237°
2026-05-05 16:31 51.03696 -53.53884 36693 ft 473 kts 237°
2026-05-05 16:31 51.00003 -53.62516 36695 ft 472 kts 237°
2026-05-05 16:32 50.96309 -53.71127 36695 ft 471 kts 237°
2026-05-05 16:32 50.92619 -53.79697 36690 ft 470 kts 237°
2026-05-05 16:33 50.88949 -53.88191 36692 ft 469 kts 237°
2026-05-05 16:33 50.85258 -53.96707 36691 ft 469 kts 237°
2026-05-05 16:34 50.81567 -54.05196 36701 ft 468 kts 237°
2026-05-05 16:34 50.77870 -54.13667 36703 ft 467 kts 237°
2026-05-05 16:35 50.74175 -54.22109 36703 ft 467 kts 237°
2026-05-05 16:35 50.70475 -54.30535 36709 ft 467 kts 237°
2026-05-05 16:36 50.66769 -54.38949 36701 ft 467 kts 237°
2026-05-05 16:36 50.63056 -54.47351 36705 ft 467 kts 237°
2026-05-05 16:37 50.59326 -54.55763 36707 ft 470 kts 237°
2026-05-05 16:37 50.55572 -54.64203 36712 ft 472 kts 237°
2026-05-05 16:38 50.51796 -54.72665 36709 ft 474 kts 237°
2026-05-05 16:38 50.47999 -54.81147 36710 ft 475 kts 237°
2026-05-05 16:39 50.44189 -54.89629 36715 ft 476 kts 237°
2026-05-05 16:39 50.40368 -54.98110 36709 ft 476 kts 237°
2026-05-05 16:40 50.36537 -55.06584 36706 ft 476 kts 236°
2026-05-05 16:40 50.32705 -55.15033 36688 ft 476 kts 237°
2026-05-05 16:41 50.28869 -55.23466 36701 ft 476 kts 237°
2026-05-05 16:41 50.25024 -55.31890 36704 ft 476 kts 237°
2026-05-05 16:42 50.21177 -55.40292 36709 ft 476 kts 236°
2026-05-05 16:42 50.17324 -55.48680 36697 ft 475 kts 237°
2026-05-05 16:43 50.13468 -55.57049 36706 ft 474 kts 237°
2026-05-05 16:43 50.09615 -55.65385 36701 ft 474 kts 237°
2026-05-05 16:44 50.05757 -55.73705 36706 ft 474 kts 237°
2026-05-05 16:44 50.01899 -55.81998 36694 ft 473 kts 237°
2026-05-05 16:45 49.98066 -55.90211 36699 ft 472 kts 237°
2026-05-05 16:45 49.94216 -55.98437 36712 ft 470 kts 237°
2026-05-05 16:46 49.90365 -56.06640 36714 ft 470 kts 237°
2026-05-05 16:46 49.86510 -56.14826 36702 ft 469 kts 237°
2026-05-05 16:47 49.83309 -56.21601 36719 ft 469 kts 237°
2026-05-05 16:47 49.79458 -56.29732 36736 ft 468 kts 237°
2026-05-05 16:48 49.75603 -56.37847 36731 ft 468 kts 237°
2026-05-05 16:48 49.71743 -56.45946 36730 ft 468 kts 237°
2026-05-05 16:49 49.67879 -56.54030 36738 ft 468 kts 237°
2026-05-05 16:49 49.64011 -56.62098 36752 ft 467 kts 237°
2026-05-05 16:50 49.60140 -56.70148 36748 ft 467 kts 237°
2026-05-05 16:50 49.56259 -56.78193 36766 ft 467 kts 237°
2026-05-05 16:51 49.52377 -56.86213 36750 ft 467 kts 237°
2026-05-05 16:51 49.48490 -56.94221 36765 ft 467 kts 237°
2026-05-05 16:52 49.44601 -57.02213 36768 ft 467 kts 237°
2026-05-05 16:52 49.40704 -57.10198 36767 ft 467 kts 237°
2026-05-05 16:53 49.36804 -57.18162 36774 ft 467 kts 237°
2026-05-05 16:53 49.32899 -57.26107 36784 ft 463 kts 237°
2026-05-05 16:54 49.29094 -57.33819 36773 ft 448 kts 237°
2026-05-05 16:54 49.25331 -57.41440 36802 ft 449 kts 237°
2026-05-05 16:55 49.21553 -57.49073 36782 ft 450 kts 237°
2026-05-05 16:55 49.17760 -57.56711 36788 ft 451 kts 237°
2026-05-05 16:56 49.13954 -57.64349 36800 ft 452 kts 237°
2026-05-05 16:56 49.10140 -57.71980 36811 ft 452 kts 237°
2026-05-05 16:57 49.06325 -57.79593 36803 ft 451 kts 237°
2026-05-05 16:57 49.02519 -57.87164 36819 ft 449 kts 237°
2026-05-05 16:58 48.98726 -57.94690 36834 ft 447 kts 237°
2026-05-05 16:58 48.94937 -58.02184 36854 ft 447 kts 237°
2026-05-05 16:59 48.91171 -58.09619 36855 ft 447 kts 237°
2026-05-05 16:59 48.87365 -58.17108 36868 ft 448 kts 237°
2026-05-05 17:00 48.83551 -58.24594 36871 ft 448 kts 237°
2026-05-05 17:00 48.79730 -58.32069 36887 ft 448 kts 237°
2026-05-05 17:01 48.75916 -58.39508 36881 ft 447 kts 237°
2026-05-05 17:01 48.72106 -58.46920 36887 ft 444 kts 237°
2026-05-05 17:02 48.68309 -58.54288 36901 ft 444 kts 237°
2026-05-05 17:02 48.64517 -58.61640 36905 ft 442 kts 237°
2026-05-05 17:03 48.60719 -58.68963 36904 ft 443 kts 237°
2026-05-05 17:03 48.56912 -58.76285 36920 ft 443 kts 237°
2026-05-05 17:04 48.53097 -58.83607 36918 ft 444 kts 237°
2026-05-05 17:04 48.49275 -58.90924 36922 ft 445 kts 237°
2026-05-05 17:05 48.45441 -58.98246 36922 ft 445 kts 236°
2026-05-05 17:05 48.41596 -59.05564 36912 ft 446 kts 236°
2026-05-05 17:06 48.37770 -59.12829 36914 ft 446 kts 236°
2026-05-05 17:06 48.33883 -59.20189 36919 ft 447 kts 236°
2026-05-05 17:07 48.30014 -59.27495 36919 ft 447 kts 236°
2026-05-05 17:07 48.26168 -59.34738 36910 ft 447 kts 236°
2026-05-05 17:08 48.22287 -59.42027 36912 ft 447 kts 236°
2026-05-05 17:08 48.18400 -59.49308 36930 ft 448 kts 236°
2026-05-05 17:09 48.14502 -59.56589 36924 ft 448 kts 236°
2026-05-05 17:09 48.10598 -59.63863 36912 ft 448 kts 236°
2026-05-05 17:10 48.06694 -59.71115 36926 ft 448 kts 236°
2026-05-05 17:10 48.02785 -59.78358 36917 ft 447 kts 236°
2026-05-05 17:11 47.98882 -59.85573 36917 ft 447 kts 236°
2026-05-05 17:11 47.94974 -59.92775 36908 ft 446 kts 236°
2026-05-05 17:12 47.91072 -59.99946 36924 ft 445 kts 236°
2026-05-05 17:12 47.87173 -60.07095 36921 ft 444 kts 236°
2026-05-05 17:13 47.83275 -60.14224 36923 ft 444 kts 236°
2026-05-05 17:13 47.79373 -60.21341 36894 ft 443 kts 236°
2026-05-05 17:14 47.75474 -60.28431 36904 ft 442 kts 236°
2026-05-05 17:14 47.71580 -60.35496 36909 ft 442 kts 236°
2026-05-05 17:15 47.67711 -60.42498 36909 ft 442 kts 236°
2026-05-05 17:15 47.63813 -60.49533 36897 ft 441 kts 236°
2026-05-05 17:16 47.59913 -60.56554 36904 ft 441 kts 236°
2026-05-05 17:16 47.56018 -60.63548 36906 ft 440 kts 236°
2026-05-05 17:17 47.52117 -60.70533 36907 ft 440 kts 236°
2026-05-05 17:17 47.48214 -60.77507 36882 ft 440 kts 236°
2026-05-05 17:18 47.44314 -60.84454 36895 ft 439 kts 236°
2026-05-05 17:18 47.40412 -60.91389 36902 ft 439 kts 236°
2026-05-05 17:19 47.36506 -60.98313 36904 ft 439 kts 236°
2026-05-05 17:19 47.32599 -61.05221 36897 ft 438 kts 235°
2026-05-05 17:20 47.28694 -61.12109 36898 ft 438 kts 235°
2026-05-05 17:20 47.24787 -61.18982 36898 ft 437 kts 235°
2026-05-05 17:21 47.20879 -61.25840 36888 ft 437 kts 235°
2026-05-05 17:22 47.15012 -61.36103 36876 ft 437 kts 235°
2026-05-05 17:22 47.11094 -61.42936 36887 ft 437 kts 235°
2026-05-05 17:23 47.07403 -61.49357 36891 ft 437 kts 235°
2026-05-05 17:23 47.03475 -61.56172 36894 ft 438 kts 235°
2026-05-05 17:24 46.99566 -61.62939 36883 ft 438 kts 234°
2026-05-05 17:24 46.95628 -61.69740 36890 ft 438 kts 234°
2026-05-05 17:25 46.91678 -61.76545 36888 ft 439 kts 234°
2026-05-05 17:25 46.87721 -61.83342 36885 ft 439 kts 234°
2026-05-05 17:26 46.83757 -61.90136 36872 ft 439 kts 234°
2026-05-05 17:26 46.79790 -61.96915 36886 ft 439 kts 234°
2026-05-05 17:27 46.75817 -62.03690 36892 ft 439 kts 234°
2026-05-05 17:27 46.71841 -62.10453 36889 ft 439 kts 234°
2026-05-05 17:28 46.67861 -62.17207 36896 ft 439 kts 234°
2026-05-05 17:28 46.63879 -62.23947 36886 ft 439 kts 234°
2026-05-05 17:29 46.59897 -62.30670 36878 ft 438 kts 234°
2026-05-05 17:29 46.55917 -62.37375 36881 ft 438 kts 233°
2026-05-05 17:30 46.51938 -62.44061 36872 ft 437 kts 233°
2026-05-05 17:30 46.47955 -62.50737 36881 ft 437 kts 233°
2026-05-05 17:31 46.43970 -62.57402 36895 ft 438 kts 233°
2026-05-05 17:31 46.39970 -62.64074 36892 ft 439 kts 233°
2026-05-05 17:32 46.35961 -62.70744 36877 ft 439 kts 233°
2026-05-05 17:32 46.31951 -62.77400 36892 ft 439 kts 233°
2026-05-05 17:33 46.27936 -62.84048 36886 ft 439 kts 233°
2026-05-05 17:33 46.24596 -62.89566 36886 ft 439 kts 233°
2026-05-05 17:34 46.20578 -62.96190 36872 ft 439 kts 233°
2026-05-05 17:34 46.15894 -63.03893 36880 ft 439 kts 233°
2026-05-05 17:35 46.12515 -63.09435 36883 ft 439 kts 233°
2026-05-05 17:35 46.08477 -63.16043 36888 ft 439 kts 232°
2026-05-05 17:36 46.04719 -63.22181 36877 ft 439 kts 232°
2026-05-05 17:36 46.00782 -63.28594 36897 ft 439 kts 232°
2026-05-05 17:37 45.96728 -63.35182 36877 ft 440 kts 232°
2026-05-05 17:37 45.92671 -63.41761 36910 ft 440 kts 232°
2026-05-05 17:38 45.88617 -63.48318 36891 ft 438 kts 232°
2026-05-05 17:38 45.84578 -63.54833 36890 ft 436 kts 232°
2026-05-05 17:39 45.80549 -63.61320 36897 ft 435 kts 232°
2026-05-05 17:39 45.76521 -63.67791 36887 ft 435 kts 232°
2026-05-05 17:40 45.72489 -63.74253 36894 ft 435 kts 232°
2026-05-05 17:40 45.68447 -63.80715 36887 ft 436 kts 232°
2026-05-05 17:41 45.64401 -63.87167 36897 ft 436 kts 232°
2026-05-05 17:41 45.60374 -63.93574 36896 ft 436 kts 232°
2026-05-05 17:42 45.56317 -64.00014 36889 ft 436 kts 232°
2026-05-05 17:42 45.52252 -64.06452 36898 ft 437 kts 232°
2026-05-05 17:43 45.48181 -64.12885 36893 ft 437 kts 232°
2026-05-05 17:43 45.44100 -64.19317 36901 ft 437 kts 231°
2026-05-05 17:44 45.40021 -64.25732 36903 ft 437 kts 231°
2026-05-05 17:44 45.35941 -64.32133 36899 ft 436 kts 231°
2026-05-05 17:45 45.31862 -64.38518 36908 ft 436 kts 231°
2026-05-05 17:45 45.27779 -64.44895 36892 ft 436 kts 231°
2026-05-05 17:46 45.23697 -64.51255 36907 ft 436 kts 231°
2026-05-05 17:46 45.19616 -64.57601 36915 ft 436 kts 231°
2026-05-05 17:47 45.15526 -64.63945 36915 ft 436 kts 231°
2026-05-05 17:47 45.11461 -64.70235 36906 ft 436 kts 231°
2026-05-05 17:48 45.07364 -64.76561 36917 ft 436 kts 231°
2026-05-05 17:48 45.03260 -64.82882 36917 ft 437 kts 231°
2026-05-05 17:49 44.99149 -64.89201 36926 ft 437 kts 231°
2026-05-05 17:49 44.95030 -64.95517 36919 ft 437 kts 231°
2026-05-05 17:50 44.90912 -65.01817 36929 ft 437 kts 231°
2026-05-05 17:50 44.86783 -65.08119 36923 ft 437 kts 231°
2026-05-05 17:51 44.82653 -65.14410 36934 ft 437 kts 231°
2026-05-05 17:51 44.78519 -65.20691 36928 ft 437 kts 230°
2026-05-05 17:52 44.74383 -65.26961 36940 ft 437 kts 230°
2026-05-05 17:52 44.70248 -65.33217 36956 ft 437 kts 230°
2026-05-05 17:53 44.66110 -65.39462 36936 ft 437 kts 230°
2026-05-05 17:53 44.61966 -65.45702 36956 ft 437 kts 230°
2026-05-05 17:54 44.57821 -65.51930 36961 ft 437 kts 230°
2026-05-05 17:54 44.53665 -65.58161 36968 ft 437 kts 230°
2026-05-05 17:55 44.49504 -65.64386 36951 ft 438 kts 230°
2026-05-05 17:55 44.45341 -65.70599 36972 ft 437 kts 230°
2026-05-05 17:56 44.41176 -65.76800 36979 ft 437 kts 230°
2026-05-05 17:56 44.37004 -65.82999 36971 ft 437 kts 230°
2026-05-05 17:57 44.32830 -65.89187 36961 ft 438 kts 230°
2026-05-05 17:57 44.28646 -65.95376 36963 ft 439 kts 230°
2026-05-05 17:58 44.24478 -66.01528 36964 ft 439 kts 230°
2026-05-05 17:58 44.20275 -66.07717 36983 ft 440 kts 230°
2026-05-05 17:59 44.16066 -66.13902 36992 ft 440 kts 230°
2026-05-05 17:59 44.11854 -66.20078 36995 ft 440 kts 230°
2026-05-05 18:00 44.07641 -66.26241 36986 ft 439 kts 230°
2026-05-05 18:00 44.03429 -66.32389 36967 ft 439 kts 229°
2026-05-05 18:01 43.99212 -66.38532 36988 ft 439 kts 229°
2026-05-05 18:01 43.94987 -66.44671 36986 ft 440 kts 229°
2026-05-05 18:02 43.90758 -66.50804 36962 ft 440 kts 229°
2026-05-05 18:02 43.86521 -66.56934 36972 ft 441 kts 229°
2026-05-05 18:03 43.82276 -66.63063 36977 ft 441 kts 229°
2026-05-05 18:03 43.78025 -66.69188 36954 ft 441 kts 229°
2026-05-05 18:04 43.73772 -66.75301 36943 ft 441 kts 229°
2026-05-05 18:04 43.69518 -66.81404 36972 ft 441 kts 229°
2026-05-05 18:05 43.65264 -66.87493 36968 ft 441 kts 229°
2026-05-05 18:05 43.60996 -66.93592 36971 ft 441 kts 229°
2026-05-05 18:06 43.56868 -66.99841 36964 ft 439 kts 234°
2026-05-05 18:06 43.53547 -67.06876 36962 ft 438 kts 242°
2026-05-05 18:07 43.50520 -67.14168 36966 ft 439 kts 242°
2026-05-05 18:07 43.47471 -67.21462 36964 ft 440 kts 242°
2026-05-05 18:08 43.44425 -67.28698 36950 ft 440 kts 242°
2026-05-05 18:08 43.41346 -67.35976 36957 ft 440 kts 241°
2026-05-05 18:09 43.38263 -67.43246 36957 ft 440 kts 241°
2026-05-05 18:09 43.35177 -67.50503 36948 ft 440 kts 241°
2026-05-05 18:10 43.32084 -67.57759 36941 ft 440 kts 241°
2026-05-05 18:10 43.28990 -67.65000 36954 ft 440 kts 241°
2026-05-05 18:11 43.25889 -67.72241 36951 ft 440 kts 241°
2026-05-05 18:11 43.22781 -67.79478 36954 ft 440 kts 241°
2026-05-05 18:12 43.19668 -67.86709 36959 ft 440 kts 241°
2026-05-05 18:12 43.16550 -67.93934 36956 ft 440 kts 240°
2026-05-05 18:13 43.13428 -68.01151 36953 ft 440 kts 240°
2026-05-05 18:13 43.10302 -68.08359 36951 ft 439 kts 240°
2026-05-05 18:14 43.07181 -68.15537 36953 ft 439 kts 240°
2026-05-05 18:14 43.04055 -68.22710 36941 ft 439 kts 240°
2026-05-05 18:15 43.00926 -68.29873 36946 ft 439 kts 240°
2026-05-05 18:15 42.97790 -68.37031 36947 ft 440 kts 240°
2026-05-05 18:16 42.94647 -68.44191 36955 ft 440 kts 240°
2026-05-05 18:16 42.91496 -68.51351 36940 ft 440 kts 240°
2026-05-05 18:17 42.88339 -68.58506 36946 ft 440 kts 240°
2026-05-05 18:17 42.85182 -68.65644 36934 ft 439 kts 240°
2026-05-05 18:18 42.82025 -68.72765 36932 ft 439 kts 239°
2026-05-05 18:18 42.78888 -68.79825 36934 ft 439 kts 240°
2026-05-05 18:19 42.75705 -68.86970 36940 ft 438 kts 239°
2026-05-05 18:19 42.72563 -68.94006 36934 ft 438 kts 239°
2026-05-05 18:20 42.69397 -69.01079 36933 ft 438 kts 239°
2026-05-05 18:20 42.66229 -69.08138 36930 ft 437 kts 239°
2026-05-05 18:21 42.63058 -69.15190 36931 ft 437 kts 239°
2026-05-05 18:21 42.59879 -69.22242 36946 ft 438 kts 239°
2026-05-05 18:22 42.56694 -69.29290 36926 ft 438 kts 239°
2026-05-05 18:22 42.53502 -69.36336 36928 ft 438 kts 239°
2026-05-05 18:23 42.50848 -69.42183 36915 ft 438 kts 239°
2026-05-05 18:23 42.47653 -69.49206 36927 ft 438 kts 239°
2026-05-05 18:24 42.44456 -69.56215 36928 ft 438 kts 239°
2026-05-05 18:24 42.41232 -69.63269 36922 ft 437 kts 239°
2026-05-05 18:25 42.38033 -69.70253 36903 ft 437 kts 239°
2026-05-05 18:25 42.34852 -69.77178 36919 ft 436 kts 239°
2026-05-05 18:26 42.31623 -69.84193 36924 ft 437 kts 239°
2026-05-05 18:26 42.28432 -69.91109 36928 ft 436 kts 238°
2026-05-05 18:27 42.25196 -69.98107 36916 ft 436 kts 238°
2026-05-05 18:27 42.22005 -70.04991 36920 ft 435 kts 238°
2026-05-05 18:28 42.17182 -70.15367 36937 ft 436 kts 238°
2026-05-05 18:28 42.13955 -70.22289 36946 ft 436 kts 238°
2026-05-05 18:29 42.10727 -70.29197 36937 ft 436 kts 238°
2026-05-05 18:29 42.07499 -70.36095 36903 ft 435 kts 238°
2026-05-05 18:30 42.04255 -70.42968 36904 ft 435 kts 237°
2026-05-05 18:30 42.00714 -70.49569 36899 ft 435 kts 234°
2026-05-05 18:31 41.97118 -70.56119 36924 ft 435 kts 234°
2026-05-05 18:31 41.93528 -70.62669 36920 ft 435 kts 234°
2026-05-05 18:32 41.89942 -70.69221 36917 ft 436 kts 234°
2026-05-05 18:32 41.86349 -70.75779 36917 ft 436 kts 234°
2026-05-05 18:33 41.82749 -70.82339 36926 ft 436 kts 234°
2026-05-05 18:33 41.79172 -70.88843 36924 ft 437 kts 234°
2026-05-05 18:34 41.75536 -70.95436 36949 ft 437 kts 234°
2026-05-05 18:34 41.71917 -71.01987 36946 ft 438 kts 234°
2026-05-05 18:35 41.68292 -71.08533 36944 ft 438 kts 234°
2026-05-05 18:35 41.64664 -71.15071 36930 ft 438 kts 234°
2026-05-05 18:36 41.61026 -71.21614 36943 ft 439 kts 234°
2026-05-05 18:36 41.57387 -71.28143 36935 ft 434 kts 234°
2026-05-05 18:37 41.55613 -71.31321 36930 ft 420 kts 234°
2026-05-05 18:37 41.53893 -71.34396 36919 ft 409 kts 234°
2026-05-05 18:37 41.52211 -71.37403 36507 ft 414 kts 234°
2026-05-05 18:37 41.50489 -71.40482 35996 ft 413 kts 234°
2026-05-05 18:38 41.48777 -71.43537 35564 ft 409 kts 234°
2026-05-05 18:38 41.47077 -71.46567 35164 ft 407 kts 234°
2026-05-05 18:38 41.45387 -71.49576 34735 ft 404 kts 234°
2026-05-05 18:38 41.43710 -71.52560 34312 ft 401 kts 234°
2026-05-05 18:39 41.42041 -71.55527 33892 ft 399 kts 234°
2026-05-05 18:39 41.40383 -71.58471 33419 ft 396 kts 234°
2026-05-05 18:39 41.38732 -71.61400 32981 ft 393 kts 234°
2026-05-05 18:39 41.37097 -71.64297 32562 ft 390 kts 234°
2026-05-05 18:40 41.35472 -71.67174 32145 ft 387 kts 234°
2026-05-05 18:40 41.33860 -71.70025 31739 ft 384 kts 234°
2026-05-05 18:40 41.32258 -71.72856 31330 ft 381 kts 235°
2026-05-05 18:40 41.30667 -71.75665 30941 ft 379 kts 235°
2026-05-05 18:41 41.29088 -71.78451 30537 ft 376 kts 235°
2026-05-05 18:41 41.27517 -71.81221 30141 ft 374 kts 235°
2026-05-05 18:41 41.25953 -71.83976 29685 ft 372 kts 235°
2026-05-05 18:41 41.24399 -71.86711 29233 ft 370 kts 235°
2026-05-05 18:42 41.22845 -71.89442 28787 ft 368 kts 235°
2026-05-05 18:42 41.21307 -71.92145 28369 ft 366 kts 235°
2026-05-05 18:42 41.19774 -71.94835 27939 ft 364 kts 235°
2026-05-05 18:42 41.18250 -71.97507 27513 ft 363 kts 235°
2026-05-05 18:43 41.16731 -72.00170 27092 ft 361 kts 235°
2026-05-05 18:43 41.15220 -72.02818 26672 ft 359 kts 235°
2026-05-05 18:43 41.13711 -72.05456 26262 ft 358 kts 235°
2026-05-05 18:43 41.12209 -72.08079 25841 ft 357 kts 235°
2026-05-05 18:44 41.10811 -72.10792 25199 ft 359 kts 241°
2026-05-05 18:44 41.09644 -72.13763 24437 ft 370 kts 246°
2026-05-05 18:44 41.08663 -72.16982 24355 ft 377 kts 251°
2026-05-05 18:44 41.07834 -72.20249 23912 ft 372 kts 252°
2026-05-05 18:45 41.07037 -72.23513 23301 ft 373 kts 252°
2026-05-05 18:45 41.06245 -72.26776 22666 ft 372 kts 252°
2026-05-05 18:45 41.05454 -72.30022 22092 ft 370 kts 252°
2026-05-05 18:45 41.04651 -72.33293 21763 ft 374 kts 252°
2026-05-05 18:46 41.03851 -72.36532 21610 ft 365 kts 252°
2026-05-05 18:46 41.03066 -72.39695 21189 ft 359 kts 252°
2026-05-05 18:46 41.02284 -72.42831 20629 ft 358 kts 252°
2026-05-05 18:46 41.01503 -72.45959 20080 ft 357 kts 252°
2026-05-05 18:47 41.00725 -72.49066 19581 ft 355 kts 251°
2026-05-05 18:47 40.99950 -72.52161 19131 ft 352 kts 251°
2026-05-05 18:47 40.99181 -72.55228 18662 ft 350 kts 251°
2026-05-05 18:47 40.98417 -72.58268 18347 ft 344 kts 251°
2026-05-05 18:48 40.97679 -72.61204 18292 ft 330 kts 251°
2026-05-05 18:48 40.96966 -72.64035 18225 ft 318 kts 251°
2026-05-05 18:48 40.96281 -72.66755 18100 ft 306 kts 251°
2026-05-05 18:48 40.95617 -72.69389 17937 ft 297 kts 251°
2026-05-05 18:49 40.94970 -72.71952 17637 ft 292 kts 251°
2026-05-05 18:49 40.94327 -72.74490 17248 ft 290 kts 252°
2026-05-05 18:49 40.93689 -72.77011 16849 ft 287 kts 251°
2026-05-05 18:49 40.92826 -72.79329 16366 ft 287 kts 236°
2026-05-05 18:50 40.91482 -72.81336 15979 ft 289 kts 225°
2026-05-05 18:50 40.89894 -72.82952 15610 ft 288 kts 220°
2026-05-05 18:50 40.88270 -72.84486 15241 ft 286 kts 220°
2026-05-05 18:50 40.86653 -72.86004 14900 ft 284 kts 220°
2026-05-05 18:51 40.85071 -72.87495 14559 ft 282 kts 220°
2026-05-05 18:51 40.83483 -72.89000 14226 ft 280 kts 221°
2026-05-05 18:51 40.81919 -72.90486 13808 ft 273 kts 221°
2026-05-05 18:51 40.80384 -72.91952 13099 ft 276 kts 221°
2026-05-05 18:52 40.78832 -72.93436 12753 ft 273 kts 221°
2026-05-05 18:52 40.77313 -72.94887 12509 ft 267 kts 221°
2026-05-05 18:52 40.75816 -72.96317 12141 ft 265 kts 221°
2026-05-05 18:52 40.74328 -72.97741 11780 ft 264 kts 221°
2026-05-05 18:53 40.72849 -72.99153 11440 ft 261 kts 221°
2026-05-05 18:53 40.71384 -73.00550 11121 ft 259 kts 220°
2026-05-05 18:53 40.69969 -73.01967 10734 ft 251 kts 228°
2026-05-05 18:53 40.69024 -73.03864 10236 ft 250 kts 248°
2026-05-05 18:54 40.68553 -73.06062 9894 ft 250 kts 261°
2026-05-05 18:54 40.68476 -73.08346 9546 ft 249 kts 266°
2026-05-05 18:54 40.68504 -73.10627 9162 ft 249 kts 267°
2026-05-05 18:54 40.68542 -73.12906 8787 ft 249 kts 266°
2026-05-05 18:55 40.68575 -73.15179 8414 ft 248 kts 266°
2026-05-05 18:55 40.68601 -73.17447 8052 ft 248 kts 266°
2026-05-05 18:55 40.68623 -73.19716 7673 ft 248 kts 266°
2026-05-05 18:55 40.68639 -73.21976 7348 ft 247 kts 265°
2026-05-05 18:56 40.68654 -73.24232 7012 ft 246 kts 265°
2026-05-05 18:56 40.68666 -73.26478 6715 ft 244 kts 265°
2026-05-05 18:56 40.68677 -73.28677 6534 ft 237 kts 265°
2026-05-05 18:56 40.68686 -73.30830 6261 ft 234 kts 265°
2026-05-05 18:57 40.68693 -73.32982 5912 ft 235 kts 265°
2026-05-05 18:57 40.68736 -73.35119 5641 ft 233 kts 272°
2026-05-05 18:57 40.69326 -73.37168 5391 ft 246 kts 292°
2026-05-05 18:57 40.70158 -73.39181 5178 ft 253 kts 291°
2026-05-05 18:58 40.70974 -73.41252 4941 ft 254 kts 290°
2026-05-05 18:58 40.71786 -73.43318 4657 ft 253 kts 291°
2026-05-05 18:58 40.72594 -73.45370 4361 ft 250 kts 291°
2026-05-05 18:58 40.73378 -73.47361 4031 ft 240 kts 291°
2026-05-05 18:59 40.74132 -73.49278 3730 ft 231 kts 290°
2026-05-05 18:59 40.74861 -73.51132 3428 ft 225 kts 290°
2026-05-05 18:59 40.75568 -73.52939 3269 ft 218 kts 290°
2026-05-05 18:59 40.76254 -73.54686 3077 ft 208 kts 290°
2026-05-05 19:00 40.76900 -73.56333 3001 ft 199 kts 290°
2026-05-05 19:00 40.77524 -73.57926 3010 ft 199 kts 290°
2026-05-05 19:00 40.78165 -73.59574 2984 ft 198 kts 290°
2026-05-05 19:00 40.78734 -73.61171 2965 ft 188 kts 277°
2026-05-05 19:01 40.78628 -73.62780 2976 ft 176 kts 237°
2026-05-05 19:01 40.77855 -73.64010 3009 ft 176 kts 225°
2026-05-05 19:01 40.76983 -73.65173 2789 ft 176 kts 220°
2026-05-05 19:01 40.76069 -73.66137 2612 ft 159 kts 217°
2026-05-05 19:02 40.75247 -73.66965 2437 ft 138 kts 214°
2026-05-05 19:02 40.74474 -73.67648 2225 ft 130 kts 211°
2026-05-05 19:02 40.73703 -73.68275 2090 ft 132 kts 211°
2026-05-05 19:02 40.72905 -73.68904 1902 ft 134 kts 210°
2026-05-05 19:03 40.72120 -73.69525 1709 ft 130 kts 210°
2026-05-05 19:03 40.71320 -73.70154 1581 ft 140 kts 209°
2026-05-05 19:03 40.70485 -73.70813 1368 ft 138 kts 208°
2026-05-05 19:03 40.69666 -73.71451 1180 ft 135 kts 208°
2026-05-05 19:04 40.68857 -73.72088 1005 ft 137 kts 207°
2026-05-05 19:04 40.68037 -73.72736 824 ft 135 kts 208°
2026-05-05 19:04 40.67248 -73.73353 659 ft 131 kts 207°
2026-05-05 19:04 40.66457 -73.73977 499 ft 134 kts 205°
2026-05-05 19:05 40.65679 -73.74591 325 ft 123 kts 205°
2026-05-05 19:05 40.64974 -73.75148 163 ft 119 kts 204°
2026-05-05 19:05 40.64205 -73.75744 67 ft 126 kts 206°
2026-05-05 19:05 40.63529 -73.76279 43 ft 109 kts 204°
2026-05-05 19:06 40.62836 -73.76775 725 ft 115 kts 201°
2026-05-05 19:06 40.62023 -73.77310 1366 ft 147 kts 204°
2026-05-05 19:06 40.61002 -73.77954 1501 ft 173 kts 204°
2026-05-05 19:06 40.59810 -73.78697 1466 ft 205 kts 204°
2026-05-05 19:07 40.58310 -73.79456 1723 ft 262 kts 191°
2026-05-05 19:07 40.57036 -73.79494 2020 ft 285 kts 173°
2026-05-05 19:07 40.55188 -73.78517 2788 ft 292 kts 148°
2026-05-05 19:07 40.53841 -73.76533 3735 ft 294 kts 123°
2026-05-05 19:08 40.53241 -73.73952 4538 ft 301 kts 98°
2026-05-05 19:08 40.53470 -73.71179 4993 ft 310 kts 74°
2026-05-05 19:08 40.54488 -73.68727 4982 ft 305 kts 48°
2026-05-05 19:08 40.56116 -73.66982 5024 ft 307 kts 31°
2026-05-05 19:09 40.57938 -73.65529 4989 ft 304 kts 28°
2026-05-05 19:09 40.59761 -73.64153 4984 ft 302 kts 27°
2026-05-05 19:09 40.61593 -73.62787 4994 ft 304 kts 27°
2026-05-05 19:09 40.63437 -73.61416 4994 ft 305 kts 27°
2026-05-05 19:10 40.65286 -73.60052 4991 ft 304 kts 27°
2026-05-05 19:10 40.67079 -73.58770 4617 ft 285 kts 20°
2026-05-05 19:10 40.68950 -73.58016 4019 ft 278 kts
2026-05-05 19:10 40.70824 -73.57510 3428 ft 272 kts
2026-05-05 19:11 40.72629 -73.57075 3145 ft 254 kts
2026-05-05 19:11 40.74336 -73.56670 3006 ft 245 kts
2026-05-05 19:11 40.75948 -73.56487 3039 ft 225 kts 343°
2026-05-05 19:11 40.77204 -73.57427 3012 ft 198 kts 301°
2026-05-05 19:12 40.77915 -73.58913 3021 ft 190 kts 290°
2026-05-05 19:12 40.78382 -73.60466 2987 ft 175 kts 269°
2026-05-05 19:12 40.78346 -73.62049 3006 ft 173 kts 254°
2026-05-05 19:12 40.78060 -73.63578 3000 ft 171 kts 250°
2026-05-05 19:13 40.77556 -73.64943 2876 ft 166 kts 220°
2026-05-05 19:13 40.76642 -73.65827 2741 ft 164 kts 215°
2026-05-05 19:13 40.75711 -73.66665 2493 ft 155 kts 213°
2026-05-05 19:13 40.74851 -73.67371 2337 ft 137 kts 211°
2026-05-05 19:14 40.74055 -73.68005 2163 ft 133 kts 210°
2026-05-05 19:14 40.73264 -73.68628 1981 ft 132 kts 211°
2026-05-05 19:14 40.72474 -73.69249 1814 ft 132 kts 210°
2026-05-05 19:14 40.71690 -73.69865 1644 ft 131 kts 209°
2026-05-05 19:15 40.70885 -73.70496 1459 ft 139 kts 209°
2026-05-05 19:15 40.70058 -73.71147 1284 ft 139 kts 208°
2026-05-05 19:15 40.69242 -73.71788 1083 ft 135 kts 207°
2026-05-05 19:15 40.68433 -73.72423 924 ft 135 kts 207°
2026-05-05 19:16 40.67627 -73.73054 742 ft 133 kts 208°
2026-05-05 19:16 40.66854 -73.73672 576 ft 127 kts 208°
2026-05-05 19:16 40.66091 -73.74266 417 ft 132 kts 206°
2026-05-05 19:16 40.65348 -73.74860 266 ft 122 kts 205°
2026-05-05 19:17 40.64595 -73.75442 91 ft 128 kts 204°
2026-05-05 19:17 40.63891 -73.75988 27 ft 105 kts 208°
2026-05-05 19:17 40.63394 -73.76369 28 ft 54 kts 211°
2026-05-05 19:17 40.63117 -73.76589 25 ft 44 kts 214°
2026-05-05 19:18 40.62950 -73.76843 29 ft 21 kts 240°
2026-05-05 19:18 40.62929 -73.76967 28 ft 14 kts 286°
2026-05-05 19:18 40.62976 -73.77076 27 ft 14 kts 301°
2026-05-05 19:18 40.63026 -73.77184 31 ft 14 kts 301°
2026-05-05 19:19 40.63075 -73.77293 32 ft 14 kts 301°
2026-05-05 19:19 40.63124 -73.77401 33 ft 14 kts 300°
2026-05-05 19:19 40.63173 -73.77509 34 ft 14 kts 301°
2026-05-05 19:19 40.63222 -73.77618 32 ft 14 kts 301°
2026-05-05 19:20 40.63271 -73.77727 32 ft 14 kts 300°
2026-05-05 19:20 40.63320 -73.77835 31 ft 14 kts 301°
2026-05-05 19:20 40.63369 -73.77944 28 ft 14 kts 299°
2026-05-05 19:20 40.63415 -73.78054 28 ft 14 kts 299°
2026-05-05 19:21 40.63464 -73.78162 30 ft 14 kts 300°
2026-05-05 19:21 40.63534 -73.78315 30 ft 27 kts 301°
2026-05-05 19:21 40.63629 -73.78526 33 ft 27 kts 301°
2026-05-05 19:21 40.63724 -73.78736 33 ft 27 kts 300°
2026-05-05 19:22 40.63816 -73.78948 28 ft 27 kts 299°
2026-05-05 19:22 40.63913 -73.79157 31 ft 27 kts 302°
2026-05-05 19:22 40.64005 -73.79353 26 ft 27 kts 301°
2026-05-05 19:22 40.64124 -73.79509 27 ft 24 kts 349°
2026-05-05 19:23 40.64290 -73.79497 29 ft 24 kts
2026-05-05 19:23 40.64457 -73.79497 28 ft 24 kts 355°
2026-05-05 19:23 40.64613 -73.79538 28 ft 21 kts 332°
2026-05-05 19:23 40.64701 -73.79619 28 ft 11 kts 324°
2026-05-05 19:24 40.64762 -73.79578 28 ft 12 kts 61°
2026-05-05 19:24 40.64801 -73.79487 28 ft 12 kts 60°
2026-05-05 19:24 40.64840 -73.79394 28 ft 12 kts 61°
2026-05-05 19:24 40.64878 -73.79302 27 ft 12 kts 60°
2026-05-05 19:25 40.64919 -73.79210 28 ft 12 kts 60°
2026-05-05 19:25 40.64958 -73.79119 28 ft 12 kts 60°
2026-05-05 19:25 40.64996 -73.79030 28 ft 12 kts 61°
2026-05-05 19:25 40.65028 -73.78951 28 ft 8 kts 66°
2026-05-05 19:26 40.65012 -73.78887 27 ft 8 kts 135°
2026-05-05 19:26 40.64962 -73.78854 28 ft 8 kts 163°
2026-05-05 19:26 40.64914 -73.78836 28 ft 4 kts 164°
2026-05-05 19:26 40.64884 -73.78833 28 ft 5 kts 195°
2026-05-05 19:27 40.64865 -73.78859 28 ft 3 kts 236°
2026-05-05 19:27 40.64857 -73.78878 28 ft 1 kts 245°
2026-05-05 19:27 40.64855 -73.78884 28 ft 0 kts 245°